Overview Statistics Trail Chart Weather Telemetry Raw packets
 

This is the latest recevied weather packets stored in our database for station/object KL3RR-2. If no packets are shown the sender has not sent any weather packets the latest 10 day(s).

<< 29 30 31 32 33 34 35 >>
Time Temp. Humidity Pressure Rain* Wind** Luminosity Snow
1777496735 9.44° C 52% 1017.1 hPa - - - -
1777496434 8.89° C 52% 1017.2 hPa - - - -
1777496133 8.89° C 54% 1017.3 hPa - - - -
1777495832 8.89° C 53% 1017.3 hPa - - - -
1777495531 8.89° C 54% 1017.4 hPa - - - -
1777495230 8.33° C 55% 1017.4 hPa - - - -
1777494929 7.78° C 56% 1017.4 hPa - - - -
1777494628 7.78° C 57% 1017.5 hPa - - - -
1777494327 7.78° C 58% 1017.4 hPa - - - -
1777494026 7.78° C 58% 1017.5 hPa - - - -
1777493725 7.78° C 61% 1017.5 hPa - - - -
1777493424 7.22° C 63% 1017.5 hPa - - - -
1777493123 6.67° C 63% 1017.6 hPa - - - -
1777492822 6.67° C 65% 1017.6 hPa - - - -
1777492521 6.67° C 66% 1017.6 hPa - - - -
1777492220 6.67° C 68% 1017.6 hPa - - - -
1777491919 6.67° C 68% 1017.7 hPa - - - -
1777491618 7.22° C 67% 1017.7 hPa - - - -
1777491317 6.67° C 69% 1017.7 hPa - - - -
1777491016 6.67° C 74% 1017.7 hPa - - - -
1777490715 6.11° C 75% 1017.7 hPa - - - -
1777490414 6.11° C 75% 1017.9 hPa - - - -
1777490113 6.11° C 75% 1018 hPa - - - -
1777489812 5.56° C 78% 1018 hPa - - - -
1777489511 5° C 80% 1018.1 hPa - - - -

* Rain since midnight (hover to see other rain measurements)
** Current wind speed in m/s (hover to see current wind gust speed)